When you browse on this site, cookies collect data to enhance your experience and personalize the content and advertising you see.
Visit our Privacy Policy to learn more. By continuing to use the site, you agree to this use of cookies and data.
  • In Hungary
  • List of Countries
  • For 7 days
  • Water Temperature
  • Satellite Maps
  • Weather Map
  • News
  • Weather Widgets
  • user-avatar
    Login

    Hourly Weather Chitapur

    Today, 24 January, Thursday

    Time Temperature Precipitation Wind Pressure Humidity
    00:00 +25°C° 0 mm 2 mps 724 mmHg 51%
    01:00 +25°C° 0 mm 2 mps 724 mmHg 53%
    02:00 +24°C° 0 mm 2 mps 724 mmHg 56%
    03:00 +24°C° 0 mm 2 mps 724 mmHg 60%
    04:00 +23°C° 0 mm 1 mps 724 mmHg 63%
    05:00 +23°C° 0 mm 1 mps 724 mmHg 67%
    06:00 +23°C° 0 mm 2 mps 725 mmHg 67%
    07:00 +24°C° 0 mm 2 mps 725 mmHg 67%
    08:00 +24°C° 0 mm 3 mps 725 mmHg 67%
    09:00 +26°C° 0 mm 3 mps 726 mmHg 60%
    10:00 +28°C° 0 mm 3 mps 726 mmHg 52%
    11:00 +30°C° 0 mm 3 mps 726 mmHg 45%
    12:00 +31°C° 0 mm 3 mps 725 mmHg 40%
    13:00 +33°C° 0 mm 3 mps 724 mmHg 34%
    14:00 +34°C° 0 mm 2 mps 723 mmHg 29%
    15:00 +32°C° 0 mm 2 mps 723 mmHg 29%
    16:00 +32°C° 0 mm 2 mps 723 mmHg 28%
    17:00 +32°C° 0 mm 1 mps 723 mmHg 28%
    18:00 +32°C° 0 mm 1 mps 723 mmHg 29%
    19:00 +31°C° 0 mm 2 mps 723 mmHg 31%
    20:00 +30°C° 0 mm 2 mps 723 mmHg 32%
    21:00 +30°C° 0 mm 2 mps 724 mmHg 32%
    22:00 +30°C° 0 mm 3 mps 724 mmHg 33%
    23:00 +29°C° 0 mm 3 mps 724 mmHg 34%

    Tomorrow, 25 January, Friday

    Time Temperature Precipitation Wind Pressure Humidity
    00:00 +29°C° 0 mm 4 mps 723 mmHg 40%
    01:00 +28°C° 0 mm 5 mps 723 mmHg 47%
    02:00 +27°C° 0 mm 6 mps 723 mmHg 53%
    03:00 +27°C° 0.4 mm 5 mps 723 mmHg 56%
    04:00 +26°C° 0.4 mm 5 mps 723 mmHg 58%
    05:00 +26°C° 0.4 mm 5 mps 723 mmHg 61%
    06:00 +26°C° 0.1 mm 6 mps 723 mmHg 60%
    07:00 +26°C° 0.1 mm 6 mps 724 mmHg 59%
    08:00 +26°C° 0.1 mm 6 mps 725 mmHg 58%
    09:00 +28°C° 0 mm 6 mps 725 mmHg 52%
    10:00 +29°C° 0 mm 7 mps 725 mmHg 47%
    11:00 +32°C° 0 mm 7 mps 725 mmHg 41%
    12:00 +32°C° 0 mm 6 mps 724 mmHg 41%
    13:00 +32°C° 0 mm 6 mps 723 mmHg 40%
    14:00 +32°C° 0 mm 5 mps 722 mmHg 39%
    15:00 +32°C° 0 mm 4 mps 722 mmHg 39%
    16:00 +32°C° 0 mm 4 mps 722 mmHg 39%
    17:00 +31°C° 0 mm 3 mps 722 mmHg 39%
    18:00 +30°C° 0 mm 3 mps 722 mmHg 42%
    19:00 +29°C° 0 mm 3 mps 723 mmHg 45%
    20:00 +28°C° 0 mm 2 mps 723 mmHg 48%
    21:00 +28°C° 0 mm 2 mps 723 mmHg 48%
    22:00 +27°C° 0 mm 1 mps 724 mmHg 48%
    23:00 +27°C° 0 mm 1 mps 724 mmHg 48%

    Day after tomorrow, 26 January, Saturday

    Time Temperature Precipitation Wind Pressure Humidity
    00:00 +27°C° 0.1 mm 2 mps 724 mmHg 50%
    01:00 +27°C° 0.1 mm 3 mps 723 mmHg 52%
    02:00 +26°C° 0.1 mm 3 mps 723 mmHg 54%
    03:00 +25°C° 0.2 mm 3 mps 723 mmHg 60%
    04:00 +25°C° 0.2 mm 3 mps 723 mmHg 66%
    05:00 +24°C° 0.2 mm 3 mps 723 mmHg 72%
    06:00 +24°C° 0.1 mm 3 mps 724 mmHg 69%
    07:00 +25°C° 0.1 mm 3 mps 724 mmHg 67%
    08:00 +25°C° 0.1 mm 3 mps 725 mmHg 65%
    09:00 +27°C° 0 mm 3 mps 725 mmHg 58%
    10:00 +28°C° 0 mm 3 mps 725 mmHg 51%
    11:00 +30°C° 0 mm 3 mps 726 mmHg 44%
    12:00 +31°C° 0 mm 3 mps 725 mmHg 40%
    13:00 +31°C° 0 mm 2 mps 724 mmHg 37%
    14:00 +32°C° 0 mm 2 mps 723 mmHg 33%
    15:00 +32°C° 0 mm 2 mps 723 mmHg 32%
    16:00 +32°C° 0 mm 1 mps 723 mmHg 31%
    17:00 +32°C° 0 mm 1 mps 723 mmHg 31%
    18:00 +30°C° 0 mm 3 mps 723 mmHg 37%
    19:00 +29°C° 0 mm 4 mps 724 mmHg 44%
    20:00 +28°C° 0 mm 6 mps 725 mmHg 50%
    21:00 +27°C° 0.1 mm 6 mps 725 mmHg 54%
    22:00 +27°C° 0.1 mm 6 mps 725 mmHg 58%
    23:00 +26°C° 0.1 mm 6 mps 725 mmHg 62%

    27 January, Sunday

    Time Temperature Precipitation Wind Pressure Humidity
    00:00 +26°C° 0.3 mm 6 mps 725 mmHg 64%
    01:00 +25°C° 0.3 mm 5 mps 725 mmHg 67%
    02:00 +25°C° 0.3 mm 5 mps 724 mmHg 69%
    03:00 +23°C° 0 mm 5 mps 724 mmHg 71%
    04:00 +23°C° 0 mm 5 mps 724 mmHg 72%
    05:00 +22°C° 0 mm 5 mps 725 mmHg 74%
    06:00 +23°C° 0 mm 5 mps 725 mmHg 73%
    07:00 +23°C° 0 mm 6 mps 726 mmHg 73%
    08:00 +23°C° 0 mm 6 mps 727 mmHg 73%
    09:00 +24°C° 0 mm 6 mps 727 mmHg 66%
    10:00 +27°C° 0 mm 5 mps 727 mmHg 59%
    11:00 +29°C° 0 mm 5 mps 727 mmHg 52%
    12:00 +29°C° 0.2 mm 5 mps 726 mmHg 50%
    13:00 +29°C° 0.2 mm 4 mps 725 mmHg 49%
    14:00 +30°C° 0.2 mm 4 mps 725 mmHg 47%
    15:00 +29°C° 0.2 mm 4 mps 725 mmHg 48%
    16:00 +29°C° 0.2 mm 4 mps 725 mmHg 50%
    17:00 +28°C° 0.2 mm 4 mps 725 mmHg 51%
    18:00 +27°C° 0.1 mm 4 mps 725 mmHg 55%
    19:00 +26°C° 0.1 mm 5 mps 726 mmHg 58%
    20:00 +25°C° 0.1 mm 5 mps 726 mmHg 61%
    21:00 +25°C° 0.2 mm 5 mps 726 mmHg 61%
    22:00 +25°C° 0.2 mm 5 mps 727 mmHg 62%
    23:00 +25°C° 0.2 mm 5 mps 727 mmHg 62%

    28 January, Monday

    Time Temperature Precipitation Wind Pressure Humidity
    00:00 +25°C° 0.4 mm 5 mps 726 mmHg 62%
    01:00 +23°C° 0.4 mm 5 mps 726 mmHg 62%
    02:00 +23°C° 0.4 mm 5 mps 726 mmHg 63%
    03:00 +23°C° 0 mm 4 mps 726 mmHg 62%
    04:00 +22°C° 0 mm 4 mps 726 mmHg 61%
    05:00 +22°C° 0 mm 4 mps 726 mmHg 60%
    06:00 +22°C° 0 mm 4 mps 727 mmHg 57%
    07:00 +22°C° 0 mm 4 mps 728 mmHg 55%
    08:00 +23°C° 0 mm 4 mps 729 mmHg 53%
    09:00 +25°C° 0 mm 4 mps 729 mmHg 49%
    10:00 +26°C° 0 mm 5 mps 729 mmHg 45%
    11:00 +27°C° 0 mm 5 mps 729 mmHg 42%
    12:00 +28°C° 0 mm 4 mps 728 mmHg 39%
    13:00 +29°C° 0 mm 4 mps 727 mmHg 37%
    14:00 +30°C° 0 mm 3 mps 726 mmHg 34%
    15:00 +30°C° 0 mm 4 mps 726 mmHg 33%
    16:00 +30°C° 0 mm 4 mps 726 mmHg 31%
    17:00 +30°C° 0 mm 4 mps 726 mmHg 29%
    18:00 +28°C° 0 mm 4 mps 726 mmHg 29%
    19:00 +27°C° 0 mm 4 mps 727 mmHg 30%
    20:00 +26°C° 0 mm 4 mps 727 mmHg 31%
    21:00 +25°C° 0 mm 4 mps 727 mmHg 31%
    22:00 +23°C° 0 mm 4 mps 727 mmHg 31%
    23:00 +23°C° 0 mm 4 mps 727 mmHg 31%

    29 January, Tuesday

    Time Temperature Precipitation Wind Pressure Humidity
    00:00 +22°C° 0 mm 4 mps 727 mmHg 32%
    01:00 +21°C° 0 mm 4 mps 726 mmHg 32%
    02:00 +20°C° 0 mm 4 mps 726 mmHg 33%
    03:00 +20°C° 0 mm 3 mps 726 mmHg 33%
    04:00 +19°C° 0 mm 3 mps 726 mmHg 34%
    05:00 +18°C° 0 mm 3 mps 726 mmHg 35%
    06:00 +19°C° 0 mm 4 mps 727 mmHg 33%
    07:00 +20°C° 0 mm 4 mps 728 mmHg 31%
    08:00 +20°C° 0 mm 5 mps 728 mmHg 30%
    09:00 +22°C° 0 mm 5 mps 728 mmHg 26%
    10:00 +25°C° 0 mm 5 mps 728 mmHg 22%
    11:00 +27°C° 0 mm 5 mps 728 mmHg 18%
    12:00 +28°C° 0 mm 4 mps 727 mmHg 17%
    13:00 +29°C° 0 mm 4 mps 727 mmHg 15%
    14:00 +30°C° 0 mm 3 mps 726 mmHg 13%
    15:00 +29°C° 0 mm 3 mps 726 mmHg 13%
    16:00 +29°C° 0 mm 3 mps 726 mmHg 14%
    17:00 +29°C° 0 mm 4 mps 725 mmHg 14%
    18:00 +27°C° 0 mm 4 mps 726 mmHg 16%
    19:00 +26°C° 0 mm 3 mps 726 mmHg 19%
    20:00 +24°C° 0 mm 3 mps 727 mmHg 21%
    21:00 +22°C° 0 mm 3 mps 727 mmHg 22%
    22:00 +21°C° 0 mm 3 mps 727 mmHg 23%
    23:00 +21°C° 0 mm 4 mps 727 mmHg 24%
    Show more